This demonstration page uses our WeatherBlox Daily Observations layout. Learn more.

Left ArrowRight Arrow

Hourly Observations for December 9, 2022

Temp ( °F °C ) Dew Point ( °F °C ) Humidity (%) Winds ( mph kmh ) Pressure ( in mb ) Visibility ( mi km ) Precip ( " mm )
12:02 am 00:02 Cloudy with Mist and Fog 39 3.9 37 2.8 93 93 NNE 3 6 30.29 1026 4 6 0.00 0.00
12:24 am 00:24 Mostly Cloudy with Mist and Fog 38 3.3 37 2.8 97 97 Calm 30.29 1026 4 6 0.00 0.00
12:32 am 00:32 Partly Cloudy with Mist and Fog 37 2.8 36 2.2 96 96 Calm 30.29 1026 3 4 0.00 0.00
12:44 am 00:44 Mostly Clear with Mist and Fog 36 2.2 35 1.7 96 96 Calm 30.29 1026 1 2 0.00 0.00
12:53 am 00:53 Mostly Cloudy with Mist and Fog 36 2.2 34 1.1 92 92 Calm 30.27 1025 1 2 0.00 0.00
1:16 am 01:16 Mostly Cloudy with Mist and Fog 35 1.7 34 1.1 96 96 Calm 30.29 1026 2 3 0.00 0.00
1:29 am 01:29 Partly Cloudy with Mist and Fog 35 1.7 34 1.1 96 96 Calm 30.28 1025 2 3 0.00 0.00
1:43 am 01:43 Mostly Cloudy with Mist and Fog 34 1.1 33 0.6 96 96 Calm 30.28 1025 2 2 0.00 0.00
1:53 am 01:53 Mostly Cloudy with Mist and Fog 35 1.7 34 1.1 96 96 Calm 30.26 1025 2 2 0.00 0.00
2:01 am 02:01 Cloudy with Mist and Fog 35 1.7 34 1.1 96 96 Calm 30.28 1025 2 3 0.00 0.00
2:21 am 02:21 Cloudy with Mist and Fog 38 3.3 36 2.2 92 92 NE 5 7 30.28 1025 3 5 0.00 0.00
2:53 am 02:53 Cloudy with Mist and Fog 41 5 38 3.3 89 89 E 7 11 30.26 1025 4 6 0.00 0.00
3:53 am 03:53 Cloudy with Mist and Fog 41 5 38 3.3 89 89 E 7 11 30.24 1024 4 6 0.00 0.00
4:53 am 04:53 Cloudy with Mist and Fog 40 4.4 38 3.3 93 93 ENE 12 19 30.23 1024 4 6 0.00 0.00
5:53 am 05:53 Cloudy with Mist and Fog 40 4.4 38 3.3 93 93 ENE 8 13 30.22 1023 4 6 0.00 0.00
6:53 am 06:53 Cloudy with Mist and Fog 41 5 38 3.3 89 89 ENE 8 13 30.22 1023 5 8 0.00 0.00
7:37 am 07:37 Cloudy with Mist and Fog 41 5 38 3.3 89 89 ENE 6 9 30.24 1024 5 8 0.00 0.00
7:53 am 07:53 Cloudy with Mist and Fog 41 5 38 3.3 89 89 E 7 11 30.22 1024 5 8 0.00 0.00
8:53 am 08:53 Cloudy with Mist and Fog 42 5.6 38 3.3 85 85 E 9 15 30.22 1024 5 8 0.00 0.00
9:53 am 09:53 Cloudy with Mist and Fog 43 6.1 39 3.9 86 86 E 8 13 30.21 1023 6 10 0.00 0.00
10:53 am 10:53 Mostly Cloudy 45 7.2 38 3.3 76 76 E 9 15 30.20 1023 7 11 0.00 0.00
11:53 am 11:53 Cloudy 47 8.3 39 3.9 74 74 E 7 11 30.17 1022 8 13 0.00 0.00
12:53 pm 12:53 Cloudy 49 9.4 40 4.4 71 71 E 10 17 30.12 1020 9 14 0.00 0.00
1:48 pm 13:48 Cloudy 52 11 39 4 62 62 ESE 9 15 30.10 1019 10 16 0.00 0.00
1:53 pm 13:53 Cloudy 51 10.6 39 3.9 63 63 E 8 13 30.10 1019 10 16 0.00 0.00
2:53 pm 14:53 Cloudy with Light Rain 51 10.6 40 4.4 65 65 ESE 7 11 30.07 1018 9 14 0.01 0.13
3:24 pm 15:24 Cloudy with Rain 48 8.9 45 7.2 89 89 WNW 5 7 30.10 1019 2 3 0.04 1.02
3:33 pm 15:33 Cloudy with Rain 48 8.9 44 6.7 86 86 WNW 7 11 30.11 1020 3 5 0.05 1.27
3:53 pm 15:53 Cloudy 48 8.9 44 6.7 86 86 Calm 30.10 1019 7 11 0.05 1.27
4:53 pm 16:53 Cloudy 47 8.3 44 6.7 90 90 N 6 9 30.12 1020 7 11 0.00 0.00
5:53 pm 17:53 Cloudy 47 8.3 43 6.1 86 86 N 5 7 30.13 1020 8 13 0.00 0.00
6:53 pm 18:53 Cloudy 46 7.8 43 6.1 89 89 Calm 30.14 1021 8 13 0.00 0.00
7:53 pm 19:53 Cloudy 46 7.8 43 6.1 89 89 N 3 6 30.15 1021 7 11 0.00 0.00
8:53 pm 20:53 Cloudy with Mist and Fog 45 7.2 43 6.1 93 93 Calm 30.15 1021 5 8 0.00 0.00
9:53 pm 21:53 Cloudy with Mist and Fog 45 7.2 43 6.1 93 93 N 3 6 30.16 1021 5 8 0.00 0.00
10:02 pm 22:02 Cloudy with Mist and Fog 45 7.2 43 6.1 93 93 N 5 7 30.17 1022 5 8 0.00 0.00
10:53 pm 22:53 Cloudy with Mist and Fog 45 7.2 43 6.1 93 93 Calm 30.15 1021 4 6 0.00 0.00
11:53 pm 23:53 Cloudy with Mist and Fog 45 7.2 42 5.6 90 90 NNW 5 7 30.17 1022 4 6 0.00 0.00

Powered by AerisWeather